Theta_e
332 337 330 333 331 331 331 333 340 339 339 339 340 341 343 343 339 337 336 335 333 330
332 331 330 329 329 328 329 326 328 330 330 333 334 336 338 335 333 335 336 334 334 334
324 325 326 327 327 328 328 328 327 327 328 328 329 329 329 328 330 332 332 332 332 332
322 322 324 324 324 323 323 321 321 321 321 320 321 323 323 324 325 323 323 326 329 328
320 322 322 322 322 323 321 321 319 319 318 318 318 319 318 318 318 318 317 318 319 319
320 320 320 319 320 319 318 317 317 317 316 315 316 316 317 317 316 316 317 317 317 317
316 317 318 318 317 316 315 313 312 312 312 312 311 312 312 312 311 309 310 312 314 315
314 315 315 314 312 312 311 310 309 308 308 308 308 307 306 305 304 305 306 307 309 310
312 311 311 309 308 308 307 307 306 306 305 305 305 302 302 303 302 302 302 302 304 306
309 308 307 307 306 305 305 305 304 304 304 303 304 300 299 301 301 300 300 300 300 300
305 305 305 306 305 304 303 303 303 304 304 304 304 300 298 299 301 301 300 301 301 301
302 302 304 303 304 304 304 303 303 304 303 303 303 300 298 298 301 300 300 302 302 302
302 303 302 303 303 304 304 303 304 304 304 304 304 302 298 299 301 300 300 301 302 302
302 302 302 304 304 301 302 304 305 304 305 306 305 306 298 298 302 301 300 300 301 302
Wind_Speed
8 4 5 6 6 6 6 4 6 7 5 5 5 5 4 3 5 8 8 10 10 10
5 6 5 7 6 5 6 7 8 5 4 6 6 6 6 6 8 9 8 11 12 10
7 7 6 6 6 6 5 6 6 6 6 6 6 7 7 9 10 10 10 11 13 10
3 3 4 4 4 4 5 6 6 6 7 7 7 7 7 9 11 13 13 13 14 15
4 4 3 3 4 4 5 6 7 8 9 10 11 9 10 11 12 13 13 14 14 16
4 4 5 5 5 5 6 7 8 9 10 11 11 12 11 12 13 13 13 13 14 14
5 4 4 5 5 7 9 9 10 10 11 12 13 13 13 13 12 12 12 13 14 13
6 6 6 8 9 9 10 10 10 11 11 12 11 11 12 13 14 14 15 14 14 14
8 9 9 9 10 9 10 11 10 11 12 12 10 12 13 14 14 16 16 15 15 14
10 9 9 9 9 10 10 10 11 12 12 12 12 12 13 15 13 14 14 15 14 15
11 10 10 9 9 9 9 10 11 11 12 11 11 13 14 17 12 12 14 15 16 16
11 11 10 10 9 10 10 11 12 12 12 13 15 18 16 13 12 13 14 14 15 16
11 11 11 10 10 11 12 13 13 13 12 17 17 18 16 16 8 11 10 12 14 16
11 10 10 10 11 12 11 13 14 13 12 13 14 16 17 16 10 10 9 9 9 10
Wind_Direction
36 15 27 27 18 22 10 26 34 18 4 344 332 324 305 271 244 244 244 240 237 247
53 53 50 33 10 12 4 351 4 3 329 319 321 315 303 280 268 271 262 249 244 239
37 30 24 15 14 358 358 343 332 321 310 310 303 294 286 284 279 267 258 260 260 258
59 35 36 10 356 1 338 321 313 309 313 303 290 283 277 275 274 268 271 277 276 265
47 20 360 345 330 320 315 305 306 304 297 296 292 289 282 284 279 280 282 277 279 281
22 3 354 328 325 332 313 313 316 322 320 315 310 311 308 296 295 292 290 291 286 286
354 335 329 320 332 352 349 334 325 323 323 319 315 310 307 305 324 325 315 314 307 300
336 335 346 2 358 353 345 334 328 322 314 308 305 299 316 316 313 308 303 299 301 295
338 360 359 350 341 335 332 324 317 311 301 298 293 287 286 292 296 298 297 297 295 292
355 338 345 334 334 337 320 309 301 293 287 285 288 280 276 274 278 279 282 282 283 281
344 340 336 333 327 315 301 297 293 288 285 295 291 270 264 266 274 278 278 274 274 271
338 317 329 322 319 307 307 306 298 295 298 295 291 282 269 265 279 281 276 273 276 272
317 330 321 321 315 311 309 305 301 292 290 281 281 278 276 274 269 276 274 276 275 271
325 317 308 316 310 307 297 311 299 292 278 285 299 298 265 254 260 265 268 268 272 273